Gilze-Rijen, Netherlands

6:56 PM CEST on May 24, 2017 (GMT +0200)
Gilze-Rijen Air Base

Weather History for EHGR - December, 2012

Change the Weather History Date:

Friday, December 28, 2012

  Actual Average Record
Temperature  
Mean Temperature 42 °F -  
Max Temperature 50 °F 41 °F 52 °F (2015)
Min Temperature 35 °F 31 °F 10 °F (1996)
Degree Days  
Heating Degree Days 22    
Moisture  
Dew Point 43 °F    
Average Humidity 99    
Maximum Humidity 100    
Minimum Humidity 93    
Precipitation  
Precipitation 0.00 in - - ()
Sea Level Pressure  
Sea Level Pressure 30.13 in    
Wind  
Wind Speed 6 mph ()    
Max Wind Speed 16 mph    
Max Gust Speed -    
Visibility 4.0 miles    
Events Fog , Rain    
Averages and records for this station are not official NWS values.
T = Trace of Precipitation, MM = Missing Value Source: Averaged Metar Reports

Daily Weather History Graph

Daily Weather History Graph

Search for Another Location

Airport or City:

Trip Planner

Search our weather history database for the weather conditions in past years. The results will help you decide how hot, cold, wet, or windy it might be!

Date:

Astronomy

Dec. 28, 2012 Rise Set
Actual Time 8:46 AM CET 4:37 PM CET
Civil Twilight 8:05 AM CET 5:18 PM CET
Nautical Twilight 7:22 AM CET 6:01 PM CET
Astronomical Twilight 6:42 AM CET 6:42 PM CET
Moon 5:07 PM CET (12/28) 8:23 AM CET (12/28)
Length of Visible Light 9h 12m
Length of Day
7h 51m
Full, 100% of the Moon is Illuminated
Dec 28
Full
Jan 5
Last Quarter
Jan 11
New
Jan 19
First Quarter
Jan 27
Full

Hourly Weather History & Observations

Time (CET) Temp. Windchill Dew Point Humidity Pressure Visibility Wind Dir Wind Speed Gust Speed Precip Events Conditions
12:00 AM 39.2 °F 37.0 °F 39.2 °F 100% 30.01 in - WNW 3.5 mph - N/A   Overcast
12:13 AM 41.0 °F 39.0 °F 41.0 °F 100% 30.04 in 3.7 mi NNW 3.5 mph - N/A   Overcast
12:25 AM 42.8 °F 39.3 °F 42.8 °F 100% 30.04 in 5.0 mi North 5.8 mph - N/A   Overcast
12:38 AM 42.8 °F 39.3 °F 42.8 °F 100% 30.04 in 5.0 mi North 5.8 mph - N/A   Mostly Cloudy
12:39 AM 42.8 °F 39.3 °F 42.8 °F 100% 30.04 in 4.3 mi North 5.8 mph - N/A   Mostly Cloudy
12:55 AM 41.0 °F 39.0 °F 41.0 °F 100% 30.06 in 5.0 mi North 3.5 mph - N/A   Overcast
1:25 AM 41.0 °F 39.0 °F 41.0 °F 100% 30.06 in 3.1 mi NNW 3.5 mph - N/A   Mostly Cloudy
1:28 AM 41.0 °F 39.0 °F 41.0 °F 100% 30.06 in 3.1 mi NNW 3.5 mph - N/A   Mostly Cloudy
1:39 AM 41.0 °F - 41.0 °F 100% 30.06 in - NW 1.2 mph - N/A   Mostly Cloudy
1:44 AM 41.0 °F - 41.0 °F 100% 30.09 in - WNW 1.2 mph - N/A   Scattered Clouds
1:55 AM 41.0 °F - 41.0 °F 100% 30.09 in - WNW 1.2 mph - N/A Fog Fog
1:59 AM 41.0 °F - 41.0 °F 100% 30.09 in 0.5 mi WNW 2.3 mph - N/A Fog Fog
2:03 AM 41.0 °F - 41.0 °F 100% 30.09 in - NW 2.3 mph - N/A Fog Fog
2:05 AM 41.0 °F - 41.0 °F 100% 30.09 in 0.5 mi NW 2.3 mph - N/A Fog Fog
2:21 AM 39.2 °F - 39.2 °F 100% 30.09 in 0.8 mi WSW 2.3 mph - N/A   Overcast
2:25 AM 39.2 °F - 39.2 °F 100% 30.09 in 0.8 mi SW 2.3 mph - N/A   Mostly Cloudy
2:28 AM 39.2 °F - 39.2 °F 100% 30.09 in 1.2 mi SW 2.3 mph - N/A   Mostly Cloudy
2:34 AM 37.4 °F - 37.4 °F 100% 30.09 in 0.9 mi NW 1.2 mph - N/A   Overcast
2:39 AM 37.4 °F - 37.4 °F 100% 30.12 in 0.4 mi Calm Calm - N/A Fog Fog
2:43 AM 37.4 °F - 37.4 °F 100% 30.12 in 0.6 mi North 1.2 mph - N/A Fog Fog
2:47 AM 39.2 °F - 39.2 °F 100% 30.12 in - NNW 1.2 mph - N/A Fog Fog
2:55 AM 39.2 °F - 39.2 °F 100% 30.12 in 0.6 mi NNW 1.2 mph - N/A   Mostly Cloudy
3:00 AM 37.4 °F - 37.4 °F 100% 30.12 in - North 1.2 mph - N/A Fog Fog
3:01 AM 37.4 °F - 37.4 °F 100% 30.12 in 0.6 mi North 1.2 mph - N/A Fog Fog
3:11 AM 37.4 °F - 37.4 °F 100% 30.12 in 0.6 mi NNE 1.2 mph - N/A Fog Fog
3:25 AM 37.4 °F - 37.4 °F 100% 30.12 in 0.3 mi ENE 1.2 mph - N/A Fog Fog
3:49 AM 39.2 °F - 37.4 °F 93% 30.15 in 0.5 mi South 2.3 mph - N/A Fog Fog
3:55 AM 35.6 °F - 35.6 °F 100% 30.15 in 0.4 mi SSW 1.2 mph - N/A Fog Fog
3:56 AM 35.6 °F - 35.6 °F 100% 30.15 in 0.6 mi South 1.2 mph - N/A Fog Fog
4:03 AM 35.6 °F - 35.6 °F 100% 30.15 in 0.4 mi South 1.2 mph - N/A Fog Fog
4:09 AM 35.6 °F 32.8 °F 35.6 °F 100% 30.15 in 0.5 mi South 3.5 mph - N/A Fog Fog
4:17 AM 35.6 °F 32.8 °F 35.6 °F 100% 30.15 in 0.5 mi South 3.5 mph - N/A Fog Fog
4:25 AM 37.4 °F - 37.4 °F 100% 30.15 in - South 2.3 mph - N/A Fog Fog
4:41 AM 35.6 °F - 35.6 °F 100% 30.15 in 0.6 mi South 2.3 mph - N/A Fog Fog
4:45 AM 35.6 °F - 35.6 °F 100% 30.15 in 1.0 mi South 1.2 mph - N/A   Overcast
4:49 AM 35.6 °F - 35.6 °F 100% 30.15 in 0.9 mi SSE 1.2 mph - N/A   Overcast
4:55 AM 35.6 °F - 35.6 °F 100% 30.15 in 1.0 mi SSE 1.2 mph - N/A   Overcast
5:04 AM 37.4 °F - 37.4 °F 100% 30.15 in 0.7 mi South 2.3 mph - N/A   Mostly Cloudy
5:08 AM 37.4 °F - 37.4 °F 100% 30.15 in 1.3 mi South 2.3 mph - N/A   Mostly Cloudy
5:25 AM 37.4 °F - 37.4 °F 100% 30.15 in 1.4 mi South 1.2 mph - N/A   Overcast
5:55 AM 39.2 °F - 39.2 °F 100% 30.18 in - SSE 2.3 mph - N/A   Overcast
6:13 AM 39.2 °F - 39.2 °F 100% 30.18 in - SSE 2.3 mph - N/A   Overcast
6:16 AM 39.2 °F - 39.2 °F 100% 30.18 in 2.2 mi SSE 2.3 mph - N/A   Overcast
6:25 AM 39.2 °F - 39.2 °F 100% 30.18 in - SSE 2.3 mph - N/A   Overcast
6:32 AM 39.2 °F 37.0 °F 39.2 °F 100% 30.18 in - SSE 3.5 mph - N/A   Overcast
6:36 AM 39.2 °F 37.0 °F 39.2 °F 100% 30.18 in 2.2 mi SSE 3.5 mph - N/A   Overcast
6:37 AM 41.0 °F - 41.0 °F 100% 30.18 in - South 2.3 mph - N/A   Overcast
6:41 AM 41.0 °F 39.0 °F 41.0 °F 100% 30.18 in - South 3.5 mph - N/A   Overcast
6:55 AM 41.0 °F 38.0 °F 41.0 °F 100% 30.18 in - SSE 4.6 mph - N/A   Overcast
6:58 AM 41.0 °F 37.1 °F 41.0 °F 100% 30.18 in - SSE 5.8 mph - N/A   Overcast
7:00 AM 41.0 °F 37.1 °F 41.0 °F 100% 30.18 in 2.2 mi SSE 5.8 mph - N/A   Overcast
7:06 AM 41.0 °F 37.1 °F 41.0 °F 100% 30.18 in - SSE 5.8 mph - N/A   Overcast
7:12 AM 41.0 °F 37.1 °F 41.0 °F 100% 30.18 in 2.2 mi South 5.8 mph - N/A   Overcast
7:25 AM 41.0 °F 38.0 °F 41.0 °F 100% 30.18 in - South 4.6 mph - N/A   Overcast
7:55 AM 41.0 °F 37.1 °F 41.0 °F 100% 30.18 in - South 5.8 mph - N/A   Mostly Cloudy
8:25 AM 41.0 °F 37.1 °F 41.0 °F 100% 30.21 in - South 5.8 mph - N/A   Overcast
8:36 AM 41.0 °F 35.8 °F 41.0 °F 100% 30.21 in - South 8.1 mph - N/A   Overcast
8:41 AM 41.0 °F 35.8 °F 41.0 °F 100% 30.21 in 2.2 mi South 8.1 mph - N/A   Overcast
8:43 AM 42.8 °F 38.0 °F 41.0 °F 93% 30.21 in - South 8.1 mph - N/A   Mostly Cloudy
8:55 AM 41.0 °F 35.8 °F 41.0 °F 100% 30.21 in - South 8.1 mph - N/A   Overcast
9:06 AM 41.0 °F 35.8 °F 41.0 °F 100% 30.21 in - South 8.1 mph - N/A   Mostly Cloudy
9:25 AM 41.0 °F 35.8 °F 41.0 °F 100% 30.21 in - South 8.1 mph - N/A   Overcast
9:26 AM 41.0 °F 35.8 °F 41.0 °F 100% 30.21 in 3.1 mi South 8.1 mph - N/A   Overcast
9:39 AM 42.8 °F 38.6 °F 42.8 °F 100% 30.21 in 3.1 mi South 6.9 mph - N/A   Overcast
9:55 AM 42.8 °F 38.6 °F 42.8 °F 100% 30.21 in 3.7 mi South 6.9 mph - N/A   Overcast
10:13 AM 42.8 °F 37.5 °F 42.8 °F 100% 30.21 in 5.0 mi South 9.2 mph - N/A   Mostly Cloudy
10:25 AM 42.8 °F 37.5 °F 42.8 °F 100% 30.21 in 5.6 mi South 9.2 mph - N/A   Partly Cloudy
10:55 AM 44.6 °F 39.2 °F 42.8 °F 93% 30.21 in 6.2 mi South 10.4 mph - N/A   Mostly Cloudy
11:25 AM 44.6 °F 39.2 °F 42.8 °F 93% 30.21 in 6.2 mi South 10.4 mph - N/A   Overcast
11:55 AM 44.6 °F 38.8 °F 42.8 °F 93% 30.21 in 6.2 mi South 11.5 mph - N/A   Overcast
12:25 PM 44.6 °F 38.8 °F 42.8 °F 93% 30.18 in 6.2 mi South 11.5 mph - N/A   Overcast
12:55 PM 44.6 °F 38.8 °F 42.8 °F 93% 30.18 in 6.2 mi South 11.5 mph - N/A   Overcast
1:25 PM 44.6 °F 38.4 °F 42.8 °F 93% 30.18 in 6.2 mi South 12.7 mph - N/A   Heavy Drizzle
1:55 PM 44.6 °F 38.4 °F 44.6 °F 100% 30.15 in 6.2 mi South 12.7 mph - N/A   Heavy Drizzle
2:02 PM 44.6 °F 38.1 °F 44.6 °F 100% 30.15 in 6.2 mi South 13.8 mph - N/A Rain Light Rain
2:03 PM 44.6 °F 38.1 °F 44.6 °F 100% 30.15 in 6.2 mi South 13.8 mph - N/A Rain Light Rain
2:25 PM 44.6 °F 37.8 °F 44.6 °F 100% 30.15 in 6.2 mi South 15.0 mph - N/A   Drizzle
2:55 PM 44.6 °F 37.8 °F 44.6 °F 100% 30.12 in 6.2 mi South 15.0 mph - N/A Rain Light Rain
3:25 PM 44.6 °F 37.4 °F 44.6 °F 100% 30.12 in 6.2 mi South 16.1 mph - N/A   Heavy Drizzle
3:34 PM 44.6 °F 37.8 °F 44.6 °F 100% 30.12 in 6.2 mi South 15.0 mph - N/A Rain Light Rain
3:38 PM 44.6 °F 37.8 °F 44.6 °F 100% 30.12 in 6.2 mi South 15.0 mph - N/A   Drizzle
3:55 PM 46.4 °F 39.8 °F 44.6 °F 93% 30.12 in 6.2 mi South 16.1 mph - N/A   Overcast
4:13 PM 46.4 °F 39.8 °F 44.6 °F 93% 30.12 in 4.3 mi South 16.1 mph - N/A   Overcast
4:18 PM 46.4 °F 39.8 °F 44.6 °F 93% 30.12 in - South 16.1 mph - N/A   Overcast
4:25 PM 46.4 °F 40.1 °F 44.6 °F 93% 30.12 in - South 15.0 mph - N/A Rain Light Rain
4:55 PM 46.4 °F 40.1 °F 46.4 °F 100% 30.09 in - SSW 15.0 mph - N/A   Heavy Drizzle
5:09 PM 46.4 °F 40.1 °F 46.4 °F 100% 30.12 in - SSW 15.0 mph - N/A   Light Drizzle
5:25 PM 46.4 °F 40.1 °F 46.4 °F 100% 30.12 in - SSW 15.0 mph - N/A   Drizzle
5:36 PM 46.4 °F 40.4 °F 46.4 °F 100% 30.12 in 6.2 mi SSW 13.8 mph - N/A   Overcast
5:40 PM 46.4 °F 40.4 °F 46.4 °F 100% 30.12 in 4.3 mi SSW 13.8 mph - N/A   Overcast
5:55 PM 46.4 °F 40.1 °F 46.4 °F 100% 30.09 in 5.6 mi SSW 15.0 mph - N/A   Overcast
6:11 PM 48.2 °F - 48.2 °F 100% 30.09 in 4.3 mi SSW 15.0 mph - N/A   Overcast
6:25 PM 48.2 °F - 46.4 °F 93% 30.09 in 5.6 mi SSW 15.0 mph - N/A   Overcast
6:36 PM 48.2 °F - 48.2 °F 100% 30.09 in 6.2 mi SSW 15.0 mph - N/A   Overcast
6:55 PM 48.2 °F - 48.2 °F 100% 30.09 in 5.0 mi SSW 13.8 mph - N/A   Overcast
7:10 PM 48.2 °F - 48.2 °F 100% 30.09 in 5.6 mi SSW 11.5 mph - N/A   Overcast
7:25 PM 48.2 °F - 48.2 °F 100% 30.09 in 6.2 mi SSW 12.7 mph - N/A   Overcast
7:55 PM 48.2 °F - 48.2 °F 100% 30.09 in 6.2 mi SSW 11.5 mph - N/A   Overcast
8:10 PM 48.2 °F - 48.2 °F 100% 30.09 in 6.2 mi SSW 12.7 mph - N/A   Overcast
8:17 PM 50.0 °F - 48.2 °F 94% 30.09 in 6.2 mi SSW 12.7 mph - N/A   Overcast
8:25 PM 50.0 °F - 48.2 °F 94% 30.09 in 6.2 mi SSW 13.8 mph - N/A   Overcast
8:29 PM 50.0 °F - 48.2 °F 94% 30.09 in 4.3 mi SSW 12.7 mph - N/A   Overcast
8:34 PM 50.0 °F - 48.2 °F 94% 30.09 in - SSW 11.5 mph - N/A   Overcast
8:55 PM 50.0 °F - 48.2 °F 94% 30.09 in 5.0 mi SSW 12.7 mph - N/A   Overcast
9:25 PM 50.0 °F - 48.2 °F 94% 30.06 in 6.2 mi SSW 15.0 mph - N/A   Overcast
9:26 PM 50.0 °F - 50.0 °F 100% 30.06 in 6.2 mi SSW 15.0 mph - N/A   Overcast
9:33 PM 50.0 °F - 50.0 °F 100% 30.06 in 6.2 mi SSW 15.0 mph - N/A   Overcast
9:37 PM 50.0 °F - 50.0 °F 100% 30.06 in 6.2 mi SSW 16.1 mph - N/A   Overcast
9:44 PM 50.0 °F - 50.0 °F 100% 30.06 in 6.2 mi SSW 15.0 mph - N/A   Overcast
9:55 PM 50.0 °F - 50.0 °F 100% 30.06 in 6.2 mi SSW 13.8 mph - N/A   Overcast
10:25 PM 50.0 °F - 50.0 °F 100% 30.06 in 6.2 mi SSW 15.0 mph - N/A   Overcast
10:38 PM 50.0 °F - 50.0 °F 100% 30.06 in 6.2 mi SSW 13.8 mph - N/A   Overcast
10:55 PM 50.0 °F - 50.0 °F 100% 30.06 in 6.2 mi SSW 12.7 mph - N/A   Overcast
11:03 PM 50.0 °F - 50.0 °F 100% 30.06 in 6.2 mi SSW 12.7 mph - N/A   Overcast
11:13 PM 50.0 °F - 50.0 °F 100% 30.06 in 6.2 mi SSW 13.8 mph - N/A   Overcast
11:17 PM 50.0 °F - 50.0 °F 100% 30.06 in 6.2 mi SSW 13.8 mph - N/A   Overcast
11:25 PM 50.0 °F - 50.0 °F 100% 30.06 in 5.0 mi SSW 12.7 mph - N/A   Overcast
11:38 PM 50.0 °F - 50.0 °F 100% 30.06 in 6.2 mi SSW 13.8 mph - N/A   Mostly Cloudy
11:43 PM 50.0 °F - 50.0 °F 100% 30.06 in 6.2 mi SSW 13.8 mph - N/A   Overcast
11:55 PM 50.0 °F - 50.0 °F 100% 30.06 in 6.2 mi SSW 13.8 mph - N/A   Mostly Cloudy